Regional Weather Roundup
Issued by NWS

Home | Current Version | Previous Version | Graphics & Text | Print | Product List | Glossary On
Versions: 1 2 3 4 5 6 7 8 9 10 11 12 13 14 15 16 17 18 19 20 21 22 23 24 25 26 27 28 29 30 31 32 33 34 35 36 37 38 39 40 41 42 43 44 45 46 47 48 49 50
000
ASUS43 KTOP 271608
RWRKS

WEATHER ROUNDUP FOR KANSAS
NATIONAL WEATHER SERVICE GOODLAND KS
1100 AM CDT FRI MAR 27 2015

NOTE:  "FAIR" INDICATES FEW OR NO CLOUDS BELOW 12,000 FEET WITH NO
SIGNIFICANT WEATHER AND/OR OBSTRUCTIONS TO VISIBILITY.

KSZ001>006-013>018-027>032-041>047-271700-
NORTHWEST KANSAS

CITY           SKY/WX    TMP DP  RH WIND       PRES   REMARKS
GOODLAND       PTSUNNY   42  32  67 S12       30.20S
HAYS           PTSUNNY   37  21  52 E9        30.27F
HILL CITY      CLOUDY    36  29  75 S3        30.27R
RUSSELL        PTSUNNY   40  26  57 VRB6      30.26F
$$

KSZ061>065-074>080-084>089-271700-
SOUTHWEST KANSAS

CITY           SKY/WX    TMP DP  RH WIND       PRES   REMARKS
DODGE CITY     CLOUDY    37  30  75 NE7       30.26F
ELKHART          N/A     45  30  55 E8          N/A
GARDEN CITY    PTSUNNY   38  31  76 CALM      30.25R
GREAT BEND     CLOUDY    37  25  60 NE5       30.28F
LIBERAL        MOSUNNY   41  30  65 E9        30.28S
PRATT          CLOUDY    39  30  70 N8        30.28S
$$

KSZ066>073-081>083-090>101-271700-
SOUTHEAST KANSAS

CITY           SKY/WX    TMP DP  RH WIND       PRES   REMARKS
CHANUTE        PTSUNNY   41  27  57 N12       30.27S
COFFEYVILLE    MOSUNNY   45  30  55 N14G23    30.27R
HUTCHINSON     PTSUNNY   39  27  62 N9        30.29R
MEDICINE LODGE   N/A     41  30  65 N7        30.28S
NEWTON         CLOUDY    39  25  56 N10       30.29R WCI  32
PARSONS        PTSUNNY   45  29  53 N9G20     30.28R
WICHITA INTL   PTSUNNY   41  29  62 NE13      30.28R
WICHITA JABRA  PTSUNNY   39  27  62 N10       30.28R WCI  32
WICHITA MCCONL PTSUNNY   40  27  58 NE12      30.28R WCI  33
WINFIELD       CLOUDY    42  30  62 N16G22    30.29R
$$

KSZ007>012-019>026-033>040-048>060-102>105-271700-
NORTHEAST KANSAS

CITY           SKY/WX    TMP DP  RH WIND       PRES   REMARKS
CONCORDIA      SUNNY     36  27  69 VRB6      30.28F
EMPORIA        PTSUNNY   40  28  62 N10       30.27F WCI  33
LAWRENCE       PTSUNNY   36  24  62 N15       30.29S WCI  27
MANHATTAN      SUNNY     39  25  57 NE12      30.30R WCI  32
MARYSVILLE     SUNNY     34  25  69 N7        30.29S
OLATHE IND     MOSUNNY   37  28  70 N13G22    30.28S WCI  29
OLATHE EXE     PTSUNNY   35  21  56 N13       30.26R WCI  26
SALINA         MOSUNNY   40  27  59 N7        30.30S
TOPEKA BILLARD SUNNY     38  24  57 N15G22    30.30  WCI  29
TOPEKA FORBES  SUNNY     39  23  52 N12       30.28S WCI  32
$$


USA.gov is the U.S. government's official web portal to all federal, state and local government web resources and services.